STARLINK-11679 [DTC] (64129 NORAD) Tracking and Keplerian Element Data

This shows tracking and keplerian element data for the satellite.

Feedback or suggestion? Click here.




ElementValue
Catalog64129
NameSTARLINK-11679 [DTC]
Epoch Orbit3405
Epoch Day353.64766486
Epoch Year2025
RAAN96.0421
Inclination42.9997
Eccentricity0.0001533
Argument of Perigee300.0793
Mean Anonmoly59.9922
Mean Motion15.70889021
Decay Rate0.00190828
L11 64129U 25111G 25353.64766486 .00190828 00000+0 14538-2 0 9997
L22 64129 42.9997 96.0421 0001533 300.0793 59.9922 15.70889021 34059



Live tracking and technical data element details for STARLINK-11679 [DTC] (NORAD 64129). STARLINK-11679 [DTC] can be tracked NOW for your location showing map with azimuth and elevation plus other details from your city location.







IsCatalogInMostPopularTable: catalog: 64129, numindb: 7
Update: records affected: 1



GetName: 64129 STARLINK-11679 [DTC]

Hit Count: updated at: Tue, 21 Apr 2026 20:36:05 GMT